Time,TemperatureF,DewpointF,PressureIn,WindDirection,WindDirectionDegrees,WindSpeedMPH,WindSpeedGustMPH,Humidity,HourlyPrecipIn,Conditions,Clouds,dailyrainin,SoftwareType,DateUTC
2013-04-22 00:03:00,67.0,66.0,30.06,SW,221,0.0,-999.0,96,-99.99,,,-99.99,,2013-04-22 10:03:00,
2013-04-22 00:12:00,67.0,66.0,30.06,SW,221,0.0,-999.0,96,-99.99,,,-99.99,,2013-04-22 10:12:00,
2013-04-22 00:22:00,67.0,66.0,30.06,SW,221,0.0,-999.0,96,-99.99,,,-99.99,,2013-04-22 10:22:00,
2013-04-22 00:32:00,67.0,66.0,30.05,SW,221,0.0,-999.0,96,-99.99,,,-99.99,,2013-04-22 10:32:00,
2013-04-22 00:42:00,67.0,66.0,30.05,SW,221,0.0,-999.0,96,-99.99,,,-99.99,,2013-04-22 10:42:00,
2013-04-22 00:52:00,67.0,66.0,30.05,SW,221,0.0,-999.0,97,-99.99,,,-99.99,,2013-04-22 10:52:00,
2013-04-22 01:02:00,67.0,66.0,30.04,SW,221,0.0,-999.0,97,-99.99,,,-99.99,,2013-04-22 11:02:00,
2013-04-22 01:12:00,67.0,66.0,30.04,SW,221,0.0,-999.0,97,-99.99,,,-99.99,,2013-04-22 11:12:00,
2013-04-22 01:22:00,68.0,67.0,30.04,SW,221,0.0,-999.0,97,-99.99,,,-99.99,,2013-04-22 11:22:00,
2013-04-22 01:32:00,68.0,67.0,30.03,SW,221,0.0,-999.0,97,-99.99,,,-99.99,,2013-04-22 11:32:00,
2013-04-22 01:42:00,68.0,67.0,30.03,SW,221,0.0,-999.0,97,-99.99,,,-99.99,,2013-04-22 11:42:00,
2013-04-22 01:52:00,68.0,67.0,30.03,SW,221,0.0,-999.0,96,-99.99,,,-99.99,,2013-04-22 11:52:00,
2013-04-22 02:01:00,67.0,66.0,30.03,SW,221,0.0,-999.0,96,-99.99,,,-99.99,,2013-04-22 12:01:00,
2013-04-22 02:12:00,67.0,66.0,30.03,SW,221,0.0,-999.0,96,-99.99,,,-99.99,,2013-04-22 12:12:00,
2013-04-22 02:21:00,67.0,66.0,30.02,SW,221,0.0,-999.0,96,-99.99,,,-99.99,,2013-04-22 12:21:00,
2013-04-22 02:31:00,66.0,65.0,30.01,SW,221,0.0,-999.0,96,-99.99,,,-99.99,,2013-04-22 12:31:00,
2013-04-22 02:42:00,66.0,65.0,30.01,SW,221,0.0,-999.0,96,-99.99,,,-99.99,,2013-04-22 12:42:00,
2013-04-22 02:52:00,66.0,65.0,30.01,SW,221,0.0,-999.0,96,-99.99,,,-99.99,,2013-04-22 12:52:00,
2013-04-22 03:01:00,65.0,64.0,30.00,SW,221,0.0,-999.0,97,-99.99,,,-99.99,,2013-04-22 13:01:00,
2013-04-22 03:11:00,65.0,64.0,30.00,SW,221,0.0,-999.0,97,-99.99,,,-99.99,,2013-04-22 13:11:00,
2013-04-22 03:22:00,65.0,64.0,29.99,SW,221,0.0,-999.0,97,-99.99,,,-99.99,,2013-04-22 13:22:00,
2013-04-22 03:31:00,65.0,64.0,29.98,SW,221,0.0,-999.0,97,-99.99,,,-99.99,,2013-04-22 13:31:00,
2013-04-22 03:41:00,65.0,64.0,29.98,SW,221,0.0,-999.0,97,-99.99,,,-99.99,,2013-04-22 13:41:00,
2013-04-22 03:52:00,65.0,64.0,29.98,SW,221,0.0,-999.0,97,-99.99,,,-99.99,,2013-04-22 13:52:00,
2013-04-22 04:02:00,65.0,64.0,29.99,SW,221,0.0,-999.0,98,-99.99,,,-99.99,,2013-04-22 14:02:00,
2013-04-22 04:11:00,65.0,64.0,29.99,SW,221,0.0,-999.0,98,-99.99,,,-99.99,,2013-04-22 14:11:00,
2013-04-22 04:21:00,65.0,64.0,29.99,SW,221,0.0,-999.0,97,-99.99,,,-99.99,,2013-04-22 14:21:00,
2013-04-22 04:33:00,64.0,63.0,29.99,SW,221,0.0,-999.0,97,-99.99,,,-99.99,,2013-04-22 14:33:00,
2013-04-22 04:42:00,64.0,63.0,29.99,SW,221,0.0,-999.0,97,-99.99,,,-99.99,,2013-04-22 14:42:00,
2013-04-22 04:51:00,64.0,63.0,30.00,SW,221,0.0,-999.0,98,-99.99,,,-99.99,,2013-04-22 14:51:00,
2013-04-22 05:01:00,63.0,62.0,30.00,SW,221,0.0,-999.0,97,-99.99,,,-99.99,,2013-04-22 15:01:00,
2013-04-22 05:11:00,63.0,62.0,30.00,SW,221,0.0,-999.0,97,-99.99,,,-99.99,,2013-04-22 15:11:00,
2013-04-22 05:22:00,64.0,63.0,30.01,SW,221,0.0,-999.0,98,-99.99,,,-99.99,,2013-04-22 15:22:00,
2013-04-22 05:33:00,64.0,63.0,30.01,SW,221,0.0,-999.0,98,-99.99,,,-99.99,,2013-04-22 15:33:00,
2013-04-22 05:42:00,64.0,63.0,30.01,SW,221,0.0,-999.0,98,-99.99,,,-99.99,,2013-04-22 15:42:00,
2013-04-22 05:53:00,64.0,63.0,30.02,SW,221,0.0,-999.0,98,-99.99,,,-99.99,,2013-04-22 15:53:00,
2013-04-22 06:02:00,65.0,64.0,30.02,SW,221,0.0,-999.0,98,-99.99,,,-99.99,,2013-04-22 16:02:00,
2013-04-22 06:12:00,65.0,64.0,30.02,SW,221,0.0,-999.0,98,-99.99,,,-99.99,,2013-04-22 16:12:00,
2013-04-22 06:22:00,66.0,65.0,30.02,SW,221,0.0,-999.0,98,-99.99,,,-99.99,,2013-04-22 16:22:00,
2013-04-22 06:32:00,66.0,65.0,30.03,SW,221,0.0,-999.0,98,-99.99,,,-99.99,,2013-04-22 16:32:00,
2013-04-22 06:42:00,66.0,65.0,30.03,SW,221,0.0,-999.0,98,-99.99,,,-99.99,,2013-04-22 16:42:00,
2013-04-22 06:52:00,67.0,66.0,30.03,SW,221,0.0,-999.0,98,-99.99,,,-99.99,,2013-04-22 16:52:00,
2013-04-22 07:02:00,67.0,66.0,30.04,SW,221,0.0,-999.0,98,-99.99,,,-99.99,,2013-04-22 17:02:00,
2013-04-22 07:12:00,67.0,66.0,30.04,SW,221,0.0,-999.0,98,-99.99,,,-99.99,,2013-04-22 17:12:00,
2013-04-22 07:21:00,68.0,67.0,30.04,SW,221,0.0,-999.0,98,-99.99,,,-99.99,,2013-04-22 17:21:00,
2013-04-22 07:31:00,69.0,69.0,30.05,SW,221,0.0,-999.0,99,-99.99,,,-99.99,,2013-04-22 17:31:00,
2013-04-22 07:42:00,69.0,69.0,30.05,SW,221,0.0,-999.0,99,-99.99,,,-99.99,,2013-04-22 17:42:00,
2013-04-22 07:51:00,70.0,69.0,30.06,SW,221,0.0,-999.0,98,-99.99,,,-99.99,,2013-04-22 17:51:00,
2013-04-22 08:01:00,71.0,70.0,30.05,SW,221,0.0,-999.0,98,-99.99,,,-99.99,,2013-04-22 18:01:00,
2013-04-22 08:12:00,71.0,70.0,30.05,SW,221,0.0,-999.0,98,-99.99,,,-99.99,,2013-04-22 18:12:00,
2013-04-22 08:21:00,73.0,72.0,30.06,SW,221,0.0,-999.0,96,-99.99,,,-99.99,,2013-04-22 18:21:00,
2013-04-22 08:32:00,74.0,71.0,30.07,SSE,159,1.0,-999.0,90,-99.99,,,-99.99,,2013-04-22 18:32:00,
2013-04-22 08:42:00,74.0,71.0,30.07,SSE,159,1.0,-999.0,90,-99.99,,,-99.99,,2013-04-22 18:42:00,
2013-04-22 08:52:00,74.0,71.0,30.07,SSW,212,0.0,-999.0,89,-99.99,,,-99.99,,2013-04-22 18:52:00,
2013-04-22 09:01:00,75.0,71.0,30.06,SSW,204,1.0,-999.0,88,-99.99,,,-99.99,,2013-04-22 19:01:00,
2013-04-22 09:11:00,75.0,71.0,30.06,SSW,204,1.0,-999.0,88,-99.99,,,-99.99,,2013-04-22 19:11:00,
2013-04-22 09:21:00,78.0,71.0,30.06,South,176,1.0,-999.0,80,-99.99,,,-99.99,,2013-04-22 19:21:00,
2013-04-22 09:32:00,78.0,71.0,30.07,South,175,1.0,-999.0,80,-99.99,,,-99.99,,2013-04-22 19:32:00,
2013-04-22 09:42:00,78.0,71.0,30.07,South,175,1.0,-999.0,80,-99.99,,,-99.99,,2013-04-22 19:42:00,
2013-04-22 09:52:00,77.0,69.0,30.07,SSW,198,1.0,-999.0,76,-99.99,,,-99.99,,2013-04-22 19:52:00,
2013-04-22 10:02:00,80.0,71.0,30.07,ENE,59,1.0,-999.0,74,-99.99,,,-99.99,,2013-04-22 20:02:00,
2013-04-22 10:11:00,80.0,71.0,30.07,ENE,59,1.0,-999.0,74,-99.99,,,-99.99,,2013-04-22 20:11:00,
2013-04-22 10:22:00,80.0,71.0,30.06,WSW,257,1.0,-999.0,73,-99.99,,,-99.99,,2013-04-22 20:22:00,
2013-04-22 10:31:00,81.0,70.0,30.06,SW,222,1.0,-999.0,69,-99.99,,,-99.99,,2013-04-22 20:31:00,
2013-04-22 10:41:00,81.0,70.0,30.06,SW,222,1.0,-999.0,69,-99.99,,,-99.99,,2013-04-22 20:41:00,
2013-04-22 10:51:00,80.0,70.0,30.06,SE,126,1.0,-999.0,72,-99.99,,,-99.99,,2013-04-22 20:51:00,
2013-04-22 11:01:00,82.0,69.0,30.06,SE,125,1.0,-999.0,66,-99.99,,,-99.99,,2013-04-22 21:01:00,
2013-04-22 11:11:00,82.0,69.0,30.06,SE,125,1.0,-999.0,66,-99.99,,,-99.99,,2013-04-22 21:11:00,
2013-04-22 11:21:00,83.0,70.0,30.05,East,101,1.0,-999.0,66,-99.99,,,-99.99,,2013-04-22 21:21:00,
2013-04-22 11:32:00,83.0,70.0,30.05,NNE,12,0.0,-999.0,65,-99.99,,,-99.99,,2013-04-22 21:32:00,
2013-04-22 11:42:00,83.0,70.0,30.05,NNE,12,0.0,-999.0,65,-99.99,,,-99.99,,2013-04-22 21:42:00,
2013-04-22 11:52:00,83.0,70.0,30.05,NNE,15,1.0,-999.0,66,-99.99,,,-99.99,,2013-04-22 21:52:00,
2013-04-22 12:02:00,82.0,70.0,30.04,SW,234,2.0,-999.0,68,-99.99,,,-99.99,,2013-04-22 22:02:00,
2013-04-22 12:12:00,82.0,70.0,30.04,SW,234,2.0,-999.0,68,-99.99,,,-99.99,,2013-04-22 22:12:00,
2013-04-22 12:22:00,83.0,71.0,30.03,NE,40,1.0,-999.0,67,-99.99,,,-99.99,,2013-04-22 22:22:00,
2013-04-22 12:32:00,84.0,72.0,30.03,NE,42,1.0,-999.0,67,-99.99,,,-99.99,,2013-04-22 22:32:00,
2013-04-22 12:42:00,84.0,72.0,30.03,NE,42,1.0,-999.0,67,-99.99,,,-99.99,,2013-04-22 22:42:00,
2013-04-22 12:52:00,84.0,71.0,30.02,West,274,1.0,-999.0,66,-99.99,,,-99.99,,2013-04-22 22:52:00,
2013-04-22 13:02:00,83.0,70.0,30.01,South,190,2.0,-999.0,66,-99.99,,,-99.99,,2013-04-22 23:02:00,
2013-04-22 13:11:00,84.0,73.0,30.00,South,191,1.0,-999.0,69,-99.99,,,-99.99,,2013-04-22 23:11:00,
2013-04-22 13:21:00,84.0,73.0,30.00,South,191,1.0,-999.0,69,-99.99,,,-99.99,,2013-04-22 23:21:00,
2013-04-22 13:32:00,83.0,70.0,29.99,SSE,165,1.0,-999.0,65,-99.99,,,-99.99,,2013-04-22 23:32:00,
2013-04-22 13:42:00,83.0,70.0,29.99,SSE,165,1.0,-999.0,65,-99.99,,,-99.99,,2013-04-22 23:42:00,
2013-04-22 13:52:00,82.0,73.0,29.98,NNE,13,2.0,-999.0,74,-99.99,,,-99.99,,2013-04-22 23:52:00,
2013-04-22 14:01:00,82.0,72.0,29.98,ENE,58,2.0,-999.0,73,-99.99,,,-99.99,,2013-04-23 00:01:00,
2013-04-22 14:12:00,82.0,72.0,29.98,ENE,58,2.0,-999.0,73,-99.99,,,-99.99,,2013-04-23 00:12:00,
2013-04-22 14:21:00,80.0,72.0,29.97,ESE,121,3.0,-999.0,76,-99.99,,,-99.99,,2013-04-23 00:21:00,
2013-04-22 14:31:00,82.0,72.0,29.97,South,190,2.0,-999.0,71,-99.99,,,-99.99,,2013-04-23 00:31:00,
2013-04-22 14:42:00,82.0,72.0,29.97,South,190,2.0,-999.0,71,-99.99,,,-99.99,,2013-04-23 00:42:00,
2013-04-22 14:51:00,83.0,72.0,29.97,East,82,1.0,-999.0,70,-99.99,,,-99.99,,2013-04-23 00:51:00,
2013-04-22 15:01:00,83.0,72.0,29.96,SE,130,1.0,-999.0,70,-99.99,,,-99.99,,2013-04-23 01:01:00,
2013-04-22 15:11:00,83.0,72.0,29.96,SE,130,1.0,-999.0,70,-99.99,,,-99.99,,2013-04-23 01:11:00,
2013-04-22 15:21:00,81.0,71.0,29.96,SSW,201,1.0,-999.0,72,-99.99,,,-99.99,,2013-04-23 01:21:00,
2013-04-22 15:32:00,81.0,72.0,29.96,SSW,209,2.0,-999.0,73,-99.99,,,-99.99,,2013-04-23 01:32:00,
2013-04-22 15:42:00,81.0,72.0,29.96,SSW,209,2.0,-999.0,73,-99.99,,,-99.99,,2013-04-23 01:42:00,
2013-04-22 15:52:00,82.0,72.0,29.96,SSW,208,1.0,-999.0,72,-99.99,,,-99.99,,2013-04-23 01:52:00,
2013-04-22 16:01:00,80.0,71.0,29.95,West,262,2.0,-999.0,73,-99.99,,,-99.99,,2013-04-23 02:01:00,
2013-04-22 16:12:00,80.0,71.0,29.95,West,262,2.0,-999.0,73,-99.99,,,-99.99,,2013-04-23 02:12:00,
2013-04-22 16:21:00,79.0,70.0,29.96,South,178,3.0,-999.0,74,-99.99,,,-99.99,,2013-04-23 02:21:00,
2013-04-22 16:32:00,78.0,70.0,29.96,SSE,152,2.0,-999.0,76,-99.99,,,-99.99,,2013-04-23 02:32:00,
2013-04-22 16:42:00,78.0,70.0,29.96,SSE,152,2.0,-999.0,76,-99.99,,,-99.99,,2013-04-23 02:42:00,
2013-04-22 16:52:00,78.0,70.0,29.96,WSW,242,1.0,-999.0,76,-99.99,,,-99.99,,2013-04-23 02:52:00,
2013-04-22 17:01:00,77.0,69.0,29.96,East,94,1.0,-999.0,77,-99.99,,,-99.99,,2013-04-23 03:01:00,
2013-04-22 17:11:00,77.0,69.0,29.96,East,94,1.0,-999.0,77,-99.99,,,-99.99,,2013-04-23 03:11:00,
2013-04-22 17:21:00,77.0,70.0,29.96,South,178,1.0,-999.0,78,-99.99,,,-99.99,,2013-04-23 03:21:00,
2013-04-22 17:33:00,76.0,69.0,29.97,ESE,121,1.0,-999.0,79,-99.99,,,-99.99,,2013-04-23 03:33:00,
2013-04-22 17:43:00,76.0,69.0,29.97,ESE,121,1.0,-999.0,79,-99.99,,,-99.99,,2013-04-23 03:43:00,
2013-04-22 17:52:00,75.0,68.0,29.98,ESE,119,0.0,-999.0,80,-99.99,,,-99.99,,2013-04-23 03:52:00,
2013-04-22 18:03:00,75.0,68.0,29.98,South,173,0.0,-999.0,80,-99.99,,,-99.99,,2013-04-23 04:03:00,
2013-04-22 18:12:00,75.0,68.0,29.98,South,173,0.0,-999.0,80,-99.99,,,-99.99,,2013-04-23 04:12:00,
2013-04-22 18:22:00,74.0,68.0,29.98,SSW,206,0.0,-999.0,82,-99.99,,,-99.99,,2013-04-23 04:22:00,
2013-04-22 18:33:00,74.0,68.0,29.99,West,274,0.0,-999.0,82,-99.99,,,-99.99,,2013-04-23 04:33:00,
2013-04-22 18:43:00,74.0,68.0,29.99,West,274,0.0,-999.0,82,-99.99,,,-99.99,,2013-04-23 04:43:00,
2013-04-22 18:52:00,73.0,68.0,30.00,South,183,0.0,-999.0,84,-99.99,,,-99.99,,2013-04-23 04:52:00,
2013-04-22 19:02:00,72.0,68.0,30.01,SSW,205,0.0,-999.0,86,-99.99,,,-99.99,,2013-04-23 05:02:00,
2013-04-22 19:12:00,72.0,68.0,30.01,SSW,205,0.0,-999.0,86,-99.99,,,-99.99,,2013-04-23 05:12:00,
2013-04-22 19:22:00,71.0,67.0,30.01,SSW,205,0.0,-999.0,87,-99.99,,,-99.99,,2013-04-23 05:22:00,
2013-04-22 19:32:00,71.0,68.0,30.01,SSW,205,0.0,-999.0,89,-99.99,,,-99.99,,2013-04-23 05:32:00,
2013-04-22 19:42:00,71.0,68.0,30.01,SSW,205,0.0,-999.0,89,-99.99,,,-99.99,,2013-04-23 05:42:00,
2013-04-22 19:52:00,70.0,67.0,30.02,SSW,205,0.0,-999.0,90,-99.99,,,-99.99,,2013-04-23 05:52:00,
2013-04-22 20:01:00,70.0,68.0,30.03,SSW,205,0.0,-999.0,92,-99.99,,,-99.99,,2013-04-23 06:01:00,
2013-04-22 20:12:00,70.0,68.0,30.03,SSW,205,0.0,-999.0,92,-99.99,,,-99.99,,2013-04-23 06:12:00,
2013-04-22 20:21:00,70.0,68.0,30.03,SSW,205,0.0,-999.0,92,-99.99,,,-99.99,,2013-04-23 06:21:00,
2013-04-22 20:32:00,70.0,68.0,30.03,SSW,205,0.0,-999.0,92,-99.99,,,-99.99,,2013-04-23 06:32:00,
2013-04-22 20:41:00,70.0,68.0,30.03,SSW,205,0.0,-999.0,92,-99.99,,,-99.99,,2013-04-23 06:41:00,
2013-04-22 20:52:00,70.0,68.0,30.04,SSW,205,0.0,-999.0,92,-99.99,,,-99.99,,2013-04-23 06:52:00,
2013-04-22 21:02:00,70.0,68.0,30.04,SSW,205,0.0,-999.0,92,-99.99,,,-99.99,,2013-04-23 07:02:00,
2013-04-22 21:11:00,70.0,68.0,30.04,SSW,205,0.0,-999.0,92,-99.99,,,-99.99,,2013-04-23 07:11:00,
2013-04-22 21:21:00,70.0,68.0,30.05,SSW,205,0.0,-999.0,92,-99.99,,,-99.99,,2013-04-23 07:21:00,
2013-04-22 21:32:00,69.0,67.0,30.05,SSW,205,0.0,-999.0,92,-99.99,,,-99.99,,2013-04-23 07:32:00,
2013-04-22 21:41:00,69.0,67.0,30.05,SSW,205,0.0,-999.0,92,-99.99,,,-99.99,,2013-04-23 07:41:00,
2013-04-22 21:52:00,68.0,66.0,30.05,SSW,205,0.0,-999.0,93,-99.99,,,-99.99,,2013-04-23 07:52:00,
2013-04-22 22:01:00,67.0,65.0,30.06,SSW,205,0.0,-999.0,94,-99.99,,,-99.99,,2013-04-23 08:01:00,
2013-04-22 22:11:00,67.0,65.0,30.06,SSW,205,0.0,-999.0,94,-99.99,,,-99.99,,2013-04-23 08:11:00,
2013-04-22 22:21:00,67.0,66.0,30.06,SSW,205,0.0,-999.0,95,-99.99,,,-99.99,,2013-04-23 08:21:00,
2013-04-22 22:31:00,67.0,66.0,30.07,SSW,205,0.0,-999.0,95,-99.99,,,-99.99,,2013-04-23 08:31:00,
2013-04-22 22:42:00,67.0,66.0,30.07,SSW,205,0.0,-999.0,95,-99.99,,,-99.99,,2013-04-23 08:42:00,
2013-04-22 22:52:00,66.0,65.0,30.07,SSW,205,0.0,-999.0,96,-99.99,,,-99.99,,2013-04-23 08:52:00,
2013-04-22 23:01:00,66.0,65.0,30.07,SSW,205,0.0,-999.0,96,-99.99,,,-99.99,,2013-04-23 09:01:00,
2013-04-22 23:11:00,66.0,65.0,30.07,SSW,205,0.0,-999.0,96,-99.99,,,-99.99,,2013-04-23 09:11:00,
2013-04-22 23:21:00,66.0,65.0,30.08,SSW,205,0.0,-999.0,96,-99.99,,,-99.99,,2013-04-23 09:21:00,
2013-04-22 23:32:00,66.0,65.0,30.07,SSW,205,0.0,-999.0,96,-99.99,,,-99.99,,2013-04-23 09:32:00,
2013-04-22 23:42:00,66.0,65.0,30.07,SSW,205,0.0,-999.0,96,-99.99,,,-99.99,,2013-04-23 09:42:00,
2013-04-22 23:52:00,66.0,65.0,30.07,SSW,205,0.0,-999.0,97,-99.99,,,-99.99,,2013-04-23 09:52:00,